�N����,����,�~����,�C��,���x,�C��,����,���ϕ���,�ő�u�ԕ���,�ő厞����,���˗�,�I�_���x,�n�����x,�ő啗���N��,DTYPE
"23/11/24","00:10",0.0,9.5,96.8,1007.1,299.3,1.0,1.7,302.4,0.00,9.1,11.6,"00:03:04",1
"23/11/24","00:20",0.0,9.5,96.9,1006.9,300.6,1.8,2.6,323.9,0.00,9.1,11.6,"00:19:28",1
"23/11/24","00:30",0.0,9.3,96.9,1007.1,288.6,1.2,2.4,326.5,0.00,8.9,11.7,"00:20:08",1
"23/11/24","00:40",0.0,9.7,97.0,1007.1,294.3,1.1,1.9,317.9,0.00,9.3,11.5,"00:33:12",1
"23/11/24","00:50",0.0,9.7,97.0,1007.1,302.9,1.6,2.5,319.8,0.00,9.3,11.6,"00:44:40",1
"23/11/24","01:00",0.0,9.6,97.2,1007.1,284.5,1.5,1.9,275.1,0.00,9.2,11.4,"00:51:44",1
"23/11/24","01:10",0.0,9.8,97.2,1007.4,302.2,1.6,2.1,313.8,0.00,9.4,11.5,"01:01:38",1
"23/11/24","01:20",0.0,10.0,97.3,1007.1,292.3,1.3,2.1,309.8,0.00,9.6,11.6,"01:19:10",1
"23/11/24","01:30",0.0,10.3,97.3,1006.9,310.1,2.1,2.6,318.4,0.00,9.9,11.5,"01:24:52",1
"23/11/24","01:40",0.0,10.4,97.3,1006.9,297.6,1.7,2.4,319.3,0.00,10.0,11.5,"01:34:24",1
"23/11/24","01:50",0.0,10.6,97.3,1006.7,303.1,0.8,1.8,317.5,0.00,10.2,11.6,"01:49:06",1
"23/11/24","02:00",0.0,10.8,97.3,1007.1,295.3,1.1,1.8,329.3,0.00,10.4,11.4,"01:50:14",1
"23/11/24","02:10",0.0,10.8,97.4,1007.1,293.3,1.5,1.8,308.8,0.00,10.4,11.6,"02:00:48",1
"23/11/24","02:20",0.0,10.9,97.4,1006.9,293.5,1.6,1.9,309.5,0.00,10.5,11.3,"02:18:04",1
"23/11/24","02:30",0.0,11.1,97.4,1006.7,303.8,1.5,1.8,312.1,0.00,10.7,11.4,"02:23:54",1
"23/11/24","02:40",0.0,11.1,97.4,1006.9,301.1,1.7,2.0,313.3,0.00,10.7,11.4,"02:36:34",1
"23/11/24","02:50",0.0,11.2,97.5,1006.9,311.4,1.8,2.5,319.4,0.00,10.9,11.5,"02:45:12",1
"23/11/24","03:00",0.0,11.2,97.5,1007.1,304.8,1.8,2.2,317.6,0.00,10.9,11.7,"02:54:10",1
"23/11/24","03:10",0.0,11.4,97.7,1007.1,272.0,1.5,1.8,269.6,0.00,11.1,11.6,"03:01:12",1
"23/11/24","03:20",0.0,11.6,97.5,1006.9,290.5,1.1,1.8,260.6,0.00,11.3,11.5,"03:11:28",1
"23/11/24","03:30",0.0,11.5,97.5,1006.9,294.0,1.2,2.0,328.0,0.00,11.2,11.6,"03:22:14",1
"23/11/24","03:40",0.0,11.3,97.5,1006.7,298.4,1.5,1.8,307.0,0.00,11.0,11.6,"03:33:42",1
"23/11/24","03:50",0.0,11.0,97.6,1007.1,306.6,1.5,2.2,308.7,0.00,10.7,11.6,"03:43:18",1
"23/11/24","04:00",0.0,10.5,97.8,1006.9,300.1,1.5,2.5,312.1,0.00,10.2,11.7,"03:58:48",1
"23/11/24","04:10",0.0,10.2,97.9,1007.1,309.7,2.0,2.5,326.1,0.00,9.9,11.6,"04:01:36",1
"23/11/24","04:20",0.0,9.7,98.0,1006.9,291.5,1.5,1.8,267.7,0.00,9.4,11.6,"04:10:24",1
"23/11/24","04:30",0.0,9.8,97.6,1006.7,299.8,1.1,1.7,312.5,0.00,9.5,11.5,"04:23:44",1
"23/11/24","04:40",0.0,9.7,98.1,1006.9,290.6,0.8,1.4,295.9,0.00,9.5,11.6,"04:39:06",1
"23/11/24","04:50",0.0,9.5,97.8,1006.7,287.4,0.7,2.0,260.8,0.00,9.2,11.5,"04:47:48",1
"23/11/24","05:00",0.0,9.5,98.3,1006.7,285.0,1.1,2.1,268.9,0.00,9.3,11.7,"04:53:38",1
"23/11/24","05:10",0.0,9.8,97.8,1006.9,282.3,1.2,2.5,315.4,0.00,9.5,11.6,"05:08:12",1
"23/11/24","05:20",0.0,9.6,98.3,1006.9,299.7,1.5,2.5,321.3,0.00,9.4,11.5,"05:11:56",1
"23/11/24","05:30",0.0,9.7,97.9,1006.4,306.0,1.3,2.4,314.3,0.00,9.4,11.6,"05:20:40",1
"23/11/24","05:40",0.0,9.0,98.4,1007.1,284.4,0.8,1.7,309.8,0.00,8.8,11.5,"05:39:30",1
"23/11/24","05:50",0.0,8.7,98.0,1007.4,270.5,0.8,2.1,262.4,0.00,8.4,11.5,"05:44:16",1
"23/11/24","06:00",0.0,8.7,98.3,1007.4,305.9,1.7,2.7,327.7,0.00,8.5,11.5,"05:59:04",1
"23/11/24","06:10",0.0,9.0,98.1,1006.9,312.7,2.0,3.1,310.1,0.00,8.8,11.6,"06:05:22",1
"23/11/24","06:20",0.2,9.0,98.0,1007.1,296.8,1.3,2.5,318.8,0.00,8.7,11.3,"06:11:04",1
"23/11/24","06:30",0.0,9.0,98.0,1007.4,295.6,1.3,2.0,317.6,0.00,8.7,11.3,"06:29:16",1
"23/11/24","06:40",0.0,9.0,98.1,1007.4,295.9,1.6,3.3,314.4,0.00,8.8,11.2,"06:36:22",1
"23/11/24","06:50",0.0,8.8,97.9,1007.6,278.3,1.1,2.6,321.2,0.00,8.5,11.6,"06:40:40",1
"23/11/24","07:00",0.0,8.6,98.7,1007.8,284.1,0.6,1.3,302.8,0.00,8.4,11.4,"06:58:36",1
"23/11/24","07:10",0.0,8.6,98.3,1008.1,294.1,1.5,2.9,317.0,0.00,8.4,11.3,"07:02:44",1
"23/11/24","07:20",0.0,9.3,98.5,1008.3,303.7,1.2,2.4,348.8,0.01,9.1,11.4,"07:16:16",1
"23/11/24","07:30",0.0,9.7,98.2,1008.1,308.0,1.5,2.4,322.4,0.02,9.5,11.3,"07:23:12",1
"23/11/24","07:40",0.0,9.9,98.3,1008.6,276.7,1.1,1.8,254.6,0.04,9.7,11.2,"07:32:48",1
"23/11/24","07:50",0.0,10.6,98.3,1008.8,308.7,1.2,2.1,342.9,0.06,10.4,11.5,"07:47:12",1
"23/11/24","08:00",0.0,11.3,98.2,1009.0,301.0,1.1,2.0,327.7,0.10,11.1,11.2,"07:53:36",1
"23/11/24","08:10",0.0,12.0,98.0,1009.3,276.5,1.1,1.9,246.8,0.13,11.7,11.2,"08:05:36",1
"23/11/24","08:20",0.0,12.5,97.9,1009.3,296.6,1.0,1.6,333.9,0.13,12.2,11.2,"08:10:08",1
"23/11/24","08:30",0.0,12.8,98.3,1009.3,276.5,1.1,1.8,241.7,0.13,12.6,11.4,"08:23:28",1
"23/11/24","08:40",0.0,13.5,97.7,1009.3,287.4,0.6,1.3,315.9,0.15,13.2,11.2,"08:32:40",1
"23/11/24","08:50",0.0,14.0,98.1,1009.5,304.0,0.2,0.6,283.2,0.18,13.7,11.3,"08:40:16",1
"23/11/24","09:00",0.0,14.0,97.0,1009.3,265.4,1.1,3.3,248.3,0.20,13.6,11.3,"08:57:12",1
"23/11/24","09:10",0.0,14.2,96.0,1009.7,265.7,1.6,3.5,244.1,0.21,13.6,11.4,"09:09:12",1
"23/11/24","09:20",0.0,14.5,94.8,1009.7,258.2,2.0,3.9,239.3,0.23,13.7,11.4,"09:11:52",1
"23/11/24","09:30",0.0,15.4,92.7,1010.0,286.7,2.0,4.0,245.6,0.25,14.3,11.4,"09:22:56",1
"23/11/24","09:40",0.0,16.3,86.1,1010.4,294.3,2.0,4.0,336.7,0.15,14.0,11.7,"09:33:04",1
"23/11/24","09:50",0.0,16.3,74.9,1010.2,266.1,1.7,3.3,251.4,0.07,11.9,11.5,"09:48:56",1
"23/11/24","10:00",0.0,16.3,72.3,1010.7,252.3,1.8,3.5,240.4,0.09,11.4,11.7,"09:55:04",1
"23/11/24","10:10",0.0,16.5,71.5,1010.2,262.9,1.7,3.4,244.5,0.14,11.4,11.8,"10:09:12",1
"23/11/24","10:20",0.0,16.5,71.2,1009.7,265.5,1.7,3.2,247.5,0.08,11.3,11.5,"10:17:20",1
"23/11/24","10:30",0.0,16.6,71.6,1009.5,253.9,1.8,3.6,241.0,0.09,11.5,11.8,"10:20:16",1
"23/11/24","10:40",0.0,16.6,71.8,1009.7,246.5,1.7,3.1,223.5,0.09,11.5,12.1,"10:37:52",1
"23/11/24","10:50",0.0,16.6,71.5,1009.7,255.3,2.0,3.4,247.5,0.07,11.5,11.8,"10:46:48",1
"23/11/24","11:00",0.0,16.6,70.5,1009.3,247.9,2.5,3.9,220.7,0.08,11.3,11.7,"10:53:52",1
"23/11/24","11:10",0.0,16.7,70.4,1009.5,247.9,2.1,4.1,229.9,0.09,11.3,12.0,"11:03:20",1
"23/11/24","11:20",0.0,16.8,69.4,1009.0,251.2,2.1,3.6,222.7,0.11,11.2,11.9,"11:19:36",1
"23/11/24","11:30",0.0,16.9,69.0,1008.8,262.9,1.7,2.9,236.4,0.15,11.2,12.0,"11:23:12",1
"23/11/24","11:40",0.0,17.1,67.9,1009.0,290.2,1.5,3.2,349.1,0.12,11.2,12.0,"11:32:32",1
"23/11/24","11:50",0.0,16.9,66.2,1009.0,304.0,2.3,7.5,333.6,0.11,10.6,12.0,"11:44:24",1
"23/11/24","12:00",0.0,16.9,66.0,1008.8,323.8,1.8,3.3,339.9,0.10,10.6,12.2,"11:51:36",1
"23/11/24","12:10",0.0,16.9,64.6,1008.8,293.0,1.2,2.2,341.2,0.09,10.2,12.1,"12:04:32",1
"23/11/24","12:20",0.0,16.8,64.4,1008.8,313.4,1.2,3.4,327.6,0.04,10.1,12.0,"12:15:44",1
"23/11/24","12:30",0.0,16.5,64.9,1008.6,306.9,1.3,2.5,258.5,0.02,9.9,12.2,"12:20:02",1
"23/11/24","12:40",0.0,16.2,65.9,1008.8,293.3,1.6,2.6,334.5,0.01,9.9,12.2,"12:38:08",1
"23/11/24","12:50",0.0,15.6,63.4,1009.3,306.5,2.2,3.7,310.0,0.01,8.7,12.2,"12:46:10",1
"23/11/24","13:00",0.0,15.5,62.7,1009.3,302.0,2.3,5.0,263.4,0.02,8.5,12.3,"12:55:42",1
"23/11/24","13:10",0.0,15.3,62.3,1009.5,310.0,2.1,4.1,306.3,0.03,8.2,12.2,"13:00:38",1
"23/11/24","13:20",0.0,15.5,61.5,1009.3,317.0,2.2,5.2,313.5,0.06,8.2,12.2,"13:12:58",1
"23/11/24","13:30",0.0,15.5,61.6,1009.7,315.3,2.1,3.9,320.2,0.08,8.2,12.2,"13:23:50",1
"23/11/24","13:40",0.0,15.7,61.5,1009.3,329.2,2.1,3.6,335.1,0.11,8.4,12.2,"13:37:04",1
"23/11/24","13:50",0.0,15.7,61.9,1009.5,310.4,2.1,4.3,335.2,0.08,8.5,12.4,"13:42:24",1
"23/11/24","14:00",0.0,15.3,63.1,1009.7,321.0,2.5,5.2,277.7,0.04,8.4,12.4,"13:53:50",1
"23/11/24","14:10",0.0,14.9,61.9,1009.5,330.0,2.5,3.7,309.4,0.04,7.7,12.3,"14:00:32",1
"23/11/24","14:20",0.0,14.5,62.0,1009.7,336.0,2.2,4.5,340.5,0.02,7.4,12.4,"14:14:40",1
"23/11/24","14:30",0.0,14.1,61.3,1010.0,305.1,2.0,4.2,317.2,0.02,6.8,12.6,"14:27:18",1
"23/11/24","14:40",0.0,14.1,59.8,1010.2,305.0,2.3,4.7,297.4,0.04,6.5,12.4,"14:32:46",1
"23/11/24","14:50",0.0,14.1,60.6,1010.4,310.4,2.2,4.1,324.6,0.05,6.6,12.5,"14:44:22",1
"23/11/24","15:00",0.0,13.9,60.0,1010.7,313.5,2.2,3.7,318.0,0.03,6.3,12.4,"14:55:36",1
"23/11/24","15:10",0.0,13.8,59.8,1010.7,327.2,1.5,3.7,303.4,0.02,6.2,12.5,"15:09:06",1
"23/11/24","15:20",0.0,13.6,58.6,1011.2,310.8,2.2,5.7,340.9,0.02,5.7,12.4,"15:12:48",1
"23/11/24","15:30",0.0,13.6,57.7,1011.2,296.6,1.6,3.4,246.4,0.01,5.5,12.4,"15:24:22",1
"23/11/24","15:40",0.0,13.6,55.5,1011.4,315.0,2.5,5.2,345.3,0.00,4.9,12.5,"15:34:52",1
"23/11/24","15:50",0.0,13.4,54.8,1011.4,307.6,2.0,4.1,336.0,0.00,4.5,12.5,"15:45:22",1
"23/11/24","16:00",0.0,13.2,55.1,1011.6,300.9,1.6,2.7,323.9,0.00,4.4,12.5,"15:56:36",1
"23/11/24","16:10",0.0,13.0,56.1,1011.9,323.9,2.1,4.5,338.1,0.00,4.5,12.3,"16:07:38",1
"23/11/24","16:20",0.0,12.7,54.8,1012.3,316.9,3.2,6.5,341.3,0.00,3.9,12.5,"16:12:40",1
"23/11/24","16:30",0.0,12.5,53.4,1012.1,322.5,4.0,8.0,342.8,0.00,3.3,12.3,"16:22:44",1
"23/11/24","16:40",0.0,12.3,54.3,1012.6,307.6,4.2,9.1,351.7,0.00,3.4,12.3,"16:32:42",1
"23/11/24","16:50",0.0,12.0,53.7,1012.3,318.8,4.4,7.5,330.7,0.00,2.9,12.4,"16:47:18",1
"23/11/24","17:00",0.0,11.9,54.1,1013.0,318.6,4.4,7.8,322.2,0.00,3.0,12.3,"16:55:46",1
"23/11/24","17:10",0.0,11.4,55.8,1013.0,324.1,3.0,6.6,333.7,0.00,2.9,12.2,"17:09:00",1
"23/11/24","17:20",0.0,11.2,56.9,1013.3,331.1,3.4,5.9,356.0,0.00,3.0,12.2,"17:12:16",1
"23/11/24","17:30",0.0,11.1,58.0,1013.8,336.5,4.0,7.4,321.9,0.00,3.2,12.2,"17:22:24",1
"23/11/24","17:40",0.0,11.0,59.8,1013.8,339.2,4.0,8.6,341.7,0.00,3.5,12.2,"17:34:42",1
"23/11/24","17:50",0.0,10.9,60.1,1014.0,324.8,3.1,6.2,334.6,0.00,3.5,12.3,"17:45:04",1
"23/11/24","18:00",0.0,10.6,61.9,1014.2,326.9,2.7,5.1,325.1,0.00,3.6,12.2,"17:53:44",1
"23/11/24","18:10",0.0,10.2,63.6,1014.5,306.9,2.2,5.7,320.8,0.00,3.7,12.2,"18:09:04",1
"23/11/24","18:20",0.0,10.3,63.3,1014.5,317.5,3.7,8.7,316.1,0.00,3.7,11.9,"18:19:36",1
"23/11/24","18:30",0.0,10.1,63.9,1014.7,315.1,2.7,6.6,312.1,0.00,3.6,12.0,"18:23:52",1
"23/11/24","18:40",0.0,9.8,65.3,1014.7,302.8,2.3,4.2,337.3,0.00,3.6,12.0,"18:39:44",1
"23/11/24","18:50",0.0,9.7,66.1,1014.9,319.7,2.8,6.3,318.9,0.00,3.7,12.0,"18:44:40",1
"23/11/24","19:00",0.0,9.4,67.0,1014.7,309.1,2.3,4.8,333.6,0.00,3.6,11.9,"18:51:36",1
"23/11/24","19:10",0.0,9.3,68.2,1015.2,315.2,2.6,7.1,327.4,0.00,3.8,12.0,"19:00:24",1
"23/11/24","19:20",0.0,9.2,69.2,1014.7,306.3,2.7,8.1,316.7,0.00,3.9,12.1,"19:16:08",1
"23/11/24","19:30",0.0,9.3,68.8,1015.2,324.7,3.7,7.3,351.1,0.00,3.9,12.0,"19:28:04",1
"23/11/24","19:40",0.0,9.1,69.2,1014.7,313.6,2.6,9.3,332.0,0.00,3.8,11.9,"19:39:20",1
"23/11/24","19:50",0.0,9.1,69.6,1015.2,323.0,3.7,6.3,302.4,0.00,3.9,11.7,"19:40:02",1
"23/11/24","20:00",0.0,9.1,70.0,1015.4,323.7,3.5,5.8,329.7,0.00,4.0,11.6,"19:57:36",1
"23/11/24","20:10",0.0,8.8,70.8,1015.2,310.6,2.8,7.0,336.5,0.00,3.8,11.8,"20:01:52",1
"23/11/24","20:20",0.0,8.7,71.1,1015.6,323.2,4.1,8.9,354.1,0.00,3.8,11.8,"20:13:28",1
"23/11/24","20:30",0.0,8.4,71.7,1015.4,303.4,2.5,4.4,340.3,0.00,3.6,11.8,"20:20:16",1
"23/11/24","20:40",0.0,8.3,72.1,1015.9,309.6,3.2,5.2,342.0,0.00,3.6,11.7,"20:38:50",1
"23/11/24","20:50",0.0,8.4,71.6,1016.1,320.9,4.4,7.5,339.8,0.00,3.6,11.7,"20:40:34",1
"23/11/24","21:00",0.0,8.4,71.1,1016.1,315.1,4.4,8.1,298.5,0.00,3.5,11.7,"20:56:44",1
"23/11/24","21:10",0.0,8.2,71.3,1016.1,302.2,3.5,9.5,326.4,0.00,3.4,11.7,"21:05:36",1
"23/11/24","21:20",0.0,8.1,71.6,1016.4,314.4,3.6,6.8,331.2,0.00,3.3,11.7,"21:11:52",1
"23/11/24","21:30",0.0,8.0,72.1,1016.1,312.7,3.2,5.9,332.2,0.00,3.3,11.6,"21:26:08",1
"23/11/24","21:40",0.0,7.8,72.8,1016.4,299.5,2.7,6.0,334.9,0.00,3.3,11.5,"21:34:32",1
"23/11/24","21:50",0.0,7.9,73.1,1016.6,314.8,3.7,6.7,319.4,0.00,3.4,11.7,"21:47:36",1
"23/11/24","22:00",0.0,7.8,73.7,1016.1,306.1,3.4,8.5,318.6,0.00,3.4,11.6,"21:57:04",1
"23/11/24","22:10",0.0,7.8,73.8,1016.4,330.4,2.6,5.5,297.3,0.00,3.5,11.2,"22:09:36",1
"23/11/24","22:20",0.0,7.9,73.5,1016.4,323.7,3.2,7.3,317.9,0.00,3.5,11.4,"22:17:14",1
"23/11/24","22:30",0.0,8.0,73.2,1016.6,321.1,5.0,10.8,328.8,0.00,3.5,11.4,"22:27:16",1
"23/11/24","22:40",0.0,8.1,73.0,1016.4,324.5,5.0,10.2,323.4,0.00,3.6,11.5,"22:33:16",1
"23/11/24","22:50",0.0,7.9,73.6,1016.4,322.2,4.4,7.4,333.2,0.00,3.5,11.4,"22:47:04",1
"23/11/24","23:00",0.0,7.8,74.2,1016.8,324.2,4.7,9.4,329.9,0.00,3.5,11.3,"22:52:32",1
"23/11/24","23:10",0.0,7.7,75.1,1016.8,318.7,4.6,8.8,323.0,0.00,3.6,11.4,"23:03:40",1
"23/11/24","23:20",0.0,7.2,76.5,1016.8,309.5,3.2,5.9,306.2,0.00,3.4,11.3,"23:13:34",1
"23/11/24","23:30",0.0,7.0,77.8,1016.6,313.3,3.7,8.2,322.6,0.00,3.4,11.2,"23:22:00",1
"23/11/24","23:40",0.0,7.1,78.6,1016.8,317.4,4.1,7.3,293.2,0.00,3.7,11.4,"23:34:18",1
"23/11/24","23:50",0.0,7.1,79.1,1017.1,308.3,3.4,7.3,346.0,0.00,3.8,11.2,"23:42:40",1
"23/11/24","24:00",0.0,7.0,79.4,1017.1,297.7,3.1,6.5,341.3,0.00,3.7,11.1,"23:53:44",1
